Regional Weather Roundup
Issued by NWS Wakefield, VA

Home | Current Version | Previous Version | Graphics & Text | Print | Product List | Glossary On
Versions: 1 2 3 4 5 6 7 8 9 10 11 12 13 14 15 16 17 18 19 20 21 22 23 24 25 26 27 28
000
ASUS41 KAKQ 261215
RWRAKQ

REGIONAL WEATHER ROUNDUP
NATIONAL WEATHER SERVICE WAKEFIELD VA
800 AM EDT MON JUN 26 2017

Note: "fair" indicates few or no clouds below 12,000 feet with no
significant weather and/or obstructions to visibility. * = Denotes
station may not report precipitation (e.g., rain,snow,etc.),
thunder or fog.

VAZ042-051-052>054-056-261300-
NORTHERN VIRGINIA

CITY           SKY/WX    TMP DP  RH WIND       PRES   REMARKS
WASH NATIONAL  MOSUNNY   73  52  47 N6        30.09S
DULLES         MOSUNNY   69  51  52 W6        30.09S
FORT BELVOIR   MOSUNNY   68  55  62 CALM      30.09R
QUANTICO       MOSUNNY   68  56  65 NW3       30.10S
FREDERICKSBRG* SUNNY     65  55  68 CALM      30.09S
STAFFORD*      SUNNY     64  56  76 W3        30.14R
WARRENTON      MOSUNNY   65  54  68 CALM      30.10S
CULPEPER*      MOSUNNY   64  56  75 CALM      30.12R
MANASSAS*      SUNNY     63  55  75 S3        30.11R
LEESBURG*      SUNNY    N/A N/A N/A W5        30.10S
WINCHESTER     SUNNY     63  50  63 SW6       30.10S
FRONT ROYAL*   SUNNY     63  52  67 S7        30.11R
LURAY*         SUNNY     59  54  82 SW5       30.13S
$$

VAZ048-049-060>072-079>083-261300-
CENTRAL AND SOUTH CENTRAL VIRGINIA

CITY           SKY/WX    TMP DP  RH WIND       PRES   REMARKS
RICHMOND       MOSUNNY   70  57  63 NW5       30.10R
CHESTERFIELD*  NOT AVBL
PETERSBURG*    SUNNY     68  55  63 CALM      30.11R
HANOVER        SUNNY     67  55  65 VRB3      30.12R
TAPPAHANNOCK*  SUNNY     67  55  64 CALM      30.11R
QUINTON*       FAIR      66  62  85 NW5       30.10R
CHARLOTTSVILLE SUNNY     66  54  65 CALM      30.11S
GORDONSVILLE*  SUNNY     69  52  54 CALM      30.10S
ORANGE*        SUNNY     64  52  63 CALM      30.11S
LOUISA*        SUNNY     70  55  60 N3        30.10S
BUMPASS*       FAIR      64  59  84 CALM      30.11R
FARMVILLE*     SUNNY     64  53  65 CALM      30.10S
CREWE*         FAIR      64  58  81 NW3       30.11R
FORT PICKETT*  FAIR      67  53  61 NW5       30.11S
CHASE CITY*    FAIR      64  58  81 CALM      30.12S
CLARKSVILLE*   FAIR      64  55  72 CALM      30.11S
SOUTH HILL*    SUNNY     67  56  66 CALM      30.17R
LAWRENCEVILLE* FAIR      66  57  71 CALM      30.11R
EMPORIA*       SUNNY     68  55  64 CALM      30.12R
$$

VAZ088>098-261300-
SOUTHEAST VIRGINIA

CITY           SKY/WX    TMP DP  RH WIND       PRES   REMARKS
NORFOLK        SUNNY     77  63  61 N6        30.09R
VIRGINIA BEACH MOSUNNY   76  63  64 N8        30.08R
NORFOLK NAVAL  MOSUNNY   76  60  57 NW7       30.10R
WEST POINT*    SUNNY     68  60  74 NW3       30.11R
SALUDA*        FAIR      71  62  72 CALM      30.09R
NEWPORT NEWS   SUNNY     71  59  65 N3        30.09R
LANGLEY AFB    SUNNY     72  61  69 W3        30.09R
FORT EUSTIS    SUNNY     75  57  53 NW3       30.07R
WILLIAMSBURG*  SUNNY     66  61  82 CALM      30.10R
HR EXEC AP*    FAIR      68  63  83 CALM      30.08R
FRANKLIN*      SUNNY     68  57  68 CALM      30.11R
US460-WAKEFLD  SUNNY     70  60  70 CALM      30.10R
$$

VAZ020-022-025-037-045-261300-
WEST CENTRAL AND SOUTHWEST VIRGINIA

CITY           SKY/WX    TMP DP  RH WIND       PRES   REMARKS
STAUNTON*      SUNNY     58  52  82 CALM      30.16S
WAYNESBORO*    SUNNY     59  51  75 SE3       30.14F
HOT SPRINGS VA SUNNY     55  39  54 CALM      30.20F
LYNCHBURG      SUNNY     64  53  67 CALM      30.14R
DANVILLE       SUNNY     63  56  78 W9G26     30.13S
SOUTH BOSTON*  FAIR      62  60  95 CALM      30.12S
MARTINSVILLE   SUNNY     57  54  88 CALM      30.18R
ROANOKE        SUNNY     62  51  67 W3        30.17R
BLACKSBURG     SUNNY     58  50  75 CALM      30.22S
DUBLIN*        SUNNY     61  49  64 W3        30.20S
MARION*        SUNNY     57  51  81 W3        30.24S
HILLSVILLE*    SUNNY     58  44  59 CALM      30.21R
RICHLANDS*     FAIR      58  50  74 CALM      30.22R
WISE*          SUNNY     59  46  63 CALM      30.23S
ABINGDON*      SUNNY     58  54  84 CALM      30.22R
$$

MDZ021>025-VAZ099-100-261300-
SOUTHERN MARYLAND AND THE DELMARVA PENINSULA

CITY           SKY/WX    TMP DP  RH WIND       PRES   REMARKS
PATUXENT RIVER SUNNY     72  52  49 NW8       30.08R
BAY BRIDGE APT SUNNY     72  54  53 NW8       30.07S
LEONARDTOWN    SUNNY     68  54  60 CALM      30.10R
DOVER          SUNNY     70  57  62 NW8       30.06R
GEORGETOWN     NOT AVBL
EASTON         SUNNY     73  55  53 NW5       30.11R
CAMBRIDGE      SUNNY     73  54  49 NW9       30.07S
SALISBURY      SUNNY     71  60  68 NW5       30.08R
OCEAN CITY     SUNNY     71  58  63 N6        30.07R
WALLOPS ISLAND MOSUNNY   73  58  59 NW6       30.08R
ACCOMACK*      MOSUNNY   74  61  63 N3        30.08R
$$

NCZ012>017-030>032-261300-
NORTH CENTRAL AND EASTERN NORTH CAROLINA

CITY           SKY/WX    TMP DP  RH WIND       PRES   REMARKS
ROANOKE RAPIDS FAIR      64  61  88 CALM      30.11R
RALEIGH        MOSUNNY   69  60  73 CALM      30.13R
ELIZABETH CITY SUNNY     72  66  81 NW7       30.09R
AHOSKIE*         N/A     65  60  83 CALM      30.11R
EDENTON*       SUNNY     71  62  71 N8        30.10S
CURRITUCK*     SUNNY     69  65  88 CALM      30.10R
KILL DEVIL HLS SUNNY     73  63  70 N5        30.07R
MANTEO         SUNNY     74  64  69 N6        30.08R
CAPE HATTERAS  CLOUDY    78  60  53 VRB5      30.06S
TARBORO*       NOT AVBL
GOLDSBORO      MOSUNNY   71  60  68 N5        30.09R
WASHINGTON     PTSUNNY  N/A N/A N/A N5        30.09S
GREENVILLE     PTSUNNY   68  61  77 N5        30.11S
NEW BERN       MOSUNNY   72  62  71 VRB5      30.10R
WILMINGTON     CLOUDY    74  66  76 N7        30.09R
$$

VAZ048-261300-
ELSEWHERE

CITY           SKY/WX    TMP DP  RH WIND       PRES   REMARKS
HARRISBURG PA  SUNNY     67  53  61 NW9       30.06S
BALTIMORE      MOSUNNY   69  54  58 W6        30.07S
ANNAPOLIS      SUNNY     68  56  65 NW5       30.07S
ANDREWS AFB    SUNNY     71  51  48 NW8       30.08S
PHILADELPHIA   MOSUNNY   71  49  45 NW8       30.06R
HENDERSON NC   SUNNY     65  51  61 CALM      30.12S
GREENSBORO     MOSUNNY   66  54  65 NW7       30.14R
ROCKY MOUNT    SUNNY     69  60  73 CALM      30.11R
$$

VAZ100-261300-
MARINE

STATION/POSITION TIME  TEMP    WIND        PRES    WAVE   SWELL
                       AIR SEA DIR/SP/G            HT/PER HT/PER
                 (UTC) (F)     (DEG/KT/KT) (MB)    (FT/S) (FT/S)
BRANDYWINE LGT   1148   71      30/ 10/ 12 1018.3R
CAPE MAY NJ      1148   74 66   10/  3/  5 1017.7R
LEWES DE         1148   72 67  360/  8/ 10 1017.9R
15NM E FENWICK I 1150   69 67  320/  6/  8 1018.4R   2/ 7   2/ 7
OCEAN-CITY-INLET 1148   72 71  350/  6/  7 1018.4R
WACHAPREAGUE VA  1148   79 78   CALM  /  3 1018.3R
THOMAS POINT MD  1200   69 77  300/ 10/ 11   N/A
GOOSES REEF MD   1150   73     360/ 14/ 17 1019.2R
COVE POINT MD    1148   72     350/ 14/ 15 1019.1R
SOLOMONS ISLAND  1148   71 78  330/  6/  8   N/A
BISHOPS HEAD MD  1148   73 78  340/ 10/ 13 1018.6R
PINEY POINT MD   1142          350/  7/  8   N/A
POTOMAC MD       1150   73     350/ 10/ 12 1017.9R
CAMBRIDGE MD     1148   75 81              1019.0R
LEWISETTA VA     1148   73 78  350/  7/  9 1018.7R
RAPPAHANNOCK LGT 1148          330/ 15/ 17 1019.1R
STINGRAY PT      1150   74     360/ 10/ 12 1018.8R
YORK RVR RNG VA  1148   72     340/  7/  9 1019.2R
YORKTOWN VA      1148   71 78  280/  3/  5 1018.6R
JAMESTOWN VA     1150   71     320/  4/  6   N/A
DOMINION TERM VA 1148   74     330/  6/  9 1019.0R
KIPTOPEKE VA     1130      74  360/  6/  8   N/A
CHES BAY BRIDGE  1148   76 76   10/  8/ 11 1018.6R
CAPE HENRY VA    1148   75     330/  9/ 10   N/A
WILLOUBY STN VA  1148   73     310/  5/  6 1018.7R
S CRANEY ISL VA  1148   75     340/  5/  6 1018.7R
CAPE HENRY BUOY  1130      71                N/A     2/ 8
1ST LANDING BUOY 1150   77                 1018.7R
CAPE CHARLES BUO 1151      63                N/A     1/ 8
64NM E OF VA BCH 1150   75 74   10/ 12/ 14 1018.2R   2/ 8   2/ 8
DUCK PIER NC     1148   74 71  350/ 12/ 13 1017.9R
44100 DUCK FRF   1105      71                N/A     2/ 8
OREGON INLET NC  1142   75 76  340/  9/ 14 1017.9R
HATTERAS NC      1148   78 77  360/ 12/ 13 1017.8S
DIAMOND SHLS NC  1150   78 79  360/ 12/ 14 1017.8R   2/ 8   2/ 8
CAPE LOOKOUT NC  1100   76      10/  8/ 10 1017.7R
$$




USA.gov is the U.S. government's official web portal to all federal, state and local government web resources and services.